Location: Big Humbug Creek
(37.8930°N, 120.2199°W)
Time: 15:49:04
(UTC+00:00)

Cosmos 2242 Rocket - Pass Details

Date: 03 August 2024
Orbit: 616 x 647 km, 82.5° (Epoch: 08 September)

Event Time Altitude Azimuth Distance (km) Brightness Sun altitude
Rises 12:05:13 0° 352° (N) 2,896 7.4 -11.5°
Reaches altitude 10° 12:07:27 10° 352° (N) 1,988 6.5 -11.1°
Maximum altitude 12:11:51 87° 267° (W) 627 3.5 -10.4°
Drops below altitude 10° 12:16:15 10° 175° (S) 1,988 5.9 -9.7°
Sets 12:18:29 0° 175° (S) 2,895 6.7 -9.3°
